Regional Weather Roundup
Issued by NWS Northern Indiana

Home | Current Version | Previous Version | Graphics & Text | Print | Product List | Glossary On
Versions: 1 2 3 4 5 6 7 8 9 10 11 12 13 14 15 16 17 18 19 20 21 22 23 24 25 26 27 28 29 30 31 32 33 34 35 36 37 38 39 40 41 42 43 44 45 46 47 48 49 50
000
ASUS43 KIWX 020300
RWRIWX

KIWX WEATHER ROUNDUP
NATIONAL WEATHER SERVICE NORTHERN INDIANA
1100 PM EDT SUN MAY 01 2016

NOTE: "FAIR" INDICATES FEW OR NO CLOUDS BELOW 12,000 FEET WITH NO
SIGNIFICANT WEATHER AND/OR OBSTRUCTIONS TO VISIBILITY.

* THESE STATIONS ARE NOT UNDER NWS QUALITY CONTROL. THEY ALSO MAY NOT
  REPORT WEATHER SUCH AS PRECIPITATION OR FOG.

INZ001>027-020400-
NORTHERN INDIANA

CITY           SKY/WX    TMP DP  RH WIND       PRES   REMARKS
GARY*          LGT RAIN  48  48 100 N12       29.99R
SOUTH BEND     CLOUDY    50  47  89 E12G17    29.94S
GOSHEN         LGT RAIN  51  49  92 E10       29.92F FOG
ANGOLA*        CLOUDY    48  39  71 E10       29.94S
FORT WAYNE     TSTM      53  51  93 NE12G21   29.94R FOG

$$
INZ028>050-020400-
CENTRAL INDIANA

CITY           SKY/WX    TMP DP  RH WIND       PRES   REMARKS
LAFAYETTE      CLOUDY    56  54  93 NE8       29.90S
KOKOMO*        CLOUDY    55  52  88 E10G16    29.90S
MUNCIE*        HVY RAIN  59  56  89 NE15G21   29.87S FOG
INDIANAPOLIS   CLOUDY    58  55  90 MISG      29.84S

$$
MIZ043>046-050>051-056>058-064>065-071>073-077>080-020400-
SOUTHWEST LOWER MICHIGAN

CITY           SKY/WX    TMP DP  RH WIND       PRES   REMARKS
BATTLE CREEK   CLOUDY    46  43  89 NE14      29.97F
BENTON HARBOR  LGT RAIN  49  45  86 NE9       29.95F FOG
COLDWATER*     CLOUDY    49  47  93 NE13G18   29.97R
HILLSDALE*     CLOUDY    47  47 100 E9        29.97R
HOLLAND        MOCLDY    49  37  63 E15G21    29.98F
GRAND RAPIDS   CLOUDY    47  37  68 NE15      29.99F
KALAMAZOO      CLOUDY    47  43  86 NE12G18   29.95F
STURGIS*       LGT RAIN  49  47  93 E13       29.94S
THREE RIVERS*  CLOUDY    49  47  95 E7        29.97R

$$
OHZ001>008-015>018-024>025-020400-
NORTHWEST OHIO

CITY           SKY/WX    TMP DP  RH WIND       PRES   REMARKS
DEFIANCE       CLOUDY    52  49  89 NE14G20   29.94S FOG
FINDLAY        CLOUDY    53  47  79 NE17      29.91F HAZE
TOLEDO EXPRESS CLOUDY    50  47  89 NE13      29.96F
TOLEDO METCALF CLOUDY    50  46  86 NE8       29.98S
LIMA           CLOUDY    53  51  93 E13       29.91R

$$
AND FOR LAKE MICHIGAN COASTAL AND OPEN LAKE BUOY OBSERVATIONS

STATION/POSITION TEMP    WIND        PRES    VSBY  WAVE
                 AIR SEA DIR/SP/G                  HT/PER
                 (F)     (DEG/KT/KT) (MB)    (MI)  (FT/S)
CALUMET HARBOR    45     330/ 11/ 13 1014.5R
MICHIGAN CITY     49      10/ 14/ 15   N/A
BURNS HARBOR      47      20/ 11/ 25 1015.2R
SAINT JOSEPH      51      30/  6/ 14 1014.6F
SOUTH LAKE BUOY   44 40   60/ 14/ 16 1015.1          2/ 4
4 MI NW BRIDGMAN  51 48                N/A           3/ 4

$$
&&



USA.gov is the U.S. government's official web portal to all federal, state and local government web resources and services.